Location: Chuathbaluk
(61.5726°N, 159.2454°W)
Time: 04:17:15
(UTC+00:00)

Transit 2A - Pass Details

Date: 30 November 2020
Orbit: 599 x 960 km, 66.7° (Epoch: 26 January)

Event Time Altitude Azimuth Distance (km) Brightness Sun altitude
Rises 03:11:43 0° 177° (S) 3,614 9.8 -10.7°
Reaches altitude 10° 03:14:48 10° 164° (SSE) 2,646 8.9 -11.0°
Maximum altitude 03:19:32 24° 114° (ESE) 1,804 7.6 -11.5°
Enters shadow 03:22:41 15° 74° (ENE) 2,170 7.7 -11.8°
Drops below altitude 10° 03:24:03 10° 64° (ENE) 2,514 - -12.0°
Sets 03:26:52 0° 51° (NE) 3,393 - -12.3°
